Date String (YYYY-MM-DD hh:mm:ss) UTC,Instrument flags,Ambient pressure (hPa),Sample flow (lpm),Bypass flow (lpm),Sample temperature (°C),Ambient temperature (°C),ASC tube jacket temperature (°C),LED temperature (°C),Box temperature (°C),Sample RH (%),Span deviation,Mass concentration (μg/m³),Mass concentration (μg/m³),Mass concentration (μg/m³)
DateTimeUTC,F1_M11,P_M11,Q1_M11,Q2_M11,T1_M11,T2_M11,T3_M11,T4_M11,T5_M11,U1_M11,ZSPAN_M11,X0_M11,X2_M11,X1_M11
2021-09-21 08:00:00,,0838.0,5.01,0.00,30.0,29.0,00.0,39.2,31.6,19.8,0000.0,0006.75,0002.75,0002.19
2021-09-21 08:01:00,,0838.0,5.01,0.00,30.0,29.0,00.0,39.2,31.5,19.9,0000.0,0006.77,0002.68,0002.17
2021-09-21 08:02:00,,0838.0,5.00,0.00,29.9,29.0,00.0,39.2,31.5,20.0,0000.0,0006.67,0002.63,0002.16
2021-09-21 08:03:00,,0837.9,5.01,0.00,29.9,28.9,00.0,39.2,31.5,19.9,0000.0,0006.51,0002.61,0002.15
2021-09-21 08:04:00,,0837.8,4.99,0.00,29.8,28.9,00.0,39.1,31.4,19.9,0000.0,0006.48,0002.62,0002.14
2021-09-21 08:05:00,,0837.8,4.99,0.00,29.8,28.8,00.0,39.1,31.3,20.0,0000.0,0006.44,0002.62,0002.14
2021-09-21 08:06:00,,0837.8,5.00,0.00,29.7,28.7,00.0,39.1,31.3,20.1,0000.0,0005.80,0002.59,0002.13
2021-09-21 08:07:00,,0837.8,4.99,0.00,29.6,28.7,00.0,39.0,31.2,20.0,0000.0,0005.69,0002.58,0002.12
2021-09-21 08:08:00,,0837.6,5.01,0.00,29.6,28.6,00.0,39.0,31.2,20.0,0000.0,0005.68,0002.54,0002.10
2021-09-21 08:09:00,,0837.5,5.01,0.00,29.5,28.5,00.0,39.0,31.1,20.1,0000.0,0005.69,0002.52,0002.09
2021-09-21 08:10:00,,0837.4,5.00,0.00,29.5,28.5,00.0,38.9,31.0,20.3,0000.0,0005.45,0002.48,0002.07
2021-09-21 08:11:00,,0837.5,4.99,0.00,29.4,28.4,00.0,38.9,31.0,21.1,0000.0,0003.90,0002.48,0002.06
2021-09-21 08:12:00,,0837.5,5.02,0.00,29.3,28.3,00.0,38.8,30.9,20.7,0000.0,0003.61,0002.50,0002.06
2021-09-21 08:13:00,,0837.5,5.00,0.00,29.3,28.2,00.0,38.8,30.8,20.5,0000.0,0003.62,0002.49,0002.04
2021-09-21 08:14:00,,0837.5,5.00,0.00,29.2,28.1,00.0,38.7,30.8,20.4,0000.0,0003.61,0002.48,0002.02
2021-09-21 08:15:00,,0837.5,4.99,0.00,29.1,28.1,00.0,38.7,30.7,20.5,0000.0,0003.55,0002.45,0002.02
2021-09-21 08:16:00,,0837.5,5.01,0.00,29.1,28.0,00.0,38.6,30.7,20.4,0000.0,0003.48,0002.42,0002.01
2021-09-21 08:17:00,,0837.5,5.00,0.00,29.0,28.0,00.0,38.6,30.6,20.4,0000.0,0003.58,0002.43,0002.01
2021-09-21 08:18:00,,0837.5,4.99,0.00,29.0,28.0,00.0,38.5,30.6,20.5,0000.0,0003.58,0002.44,0002.03
2021-09-21 08:19:00,,0837.5,5.01,0.00,29.0,27.9,00.0,38.5,30.6,20.5,0000.0,0003.65,0002.46,0002.04
2021-09-21 08:20:00,,0837.5,5.00,0.00,28.9,27.8,00.0,38.5,30.5,20.5,0000.0,0003.75,0002.48,0002.06
2021-09-21 08:21:00,,0837.5,5.00,0.00,28.9,27.8,00.0,38.4,30.4,20.6,0000.0,0004.71,0002.53,0002.09
2021-09-21 08:22:00,,0837.5,4.99,0.00,28.8,27.8,00.0,38.4,30.4,20.7,0000.0,0004.99,0002.56,0002.12
2021-09-21 08:23:00,,0837.6,5.01,0.00,28.8,27.7,00.0,38.3,30.4,20.8,0000.0,0004.95,0002.56,0002.13
2021-09-21 08:24:00,,0837.6,5.01,0.00,28.7,27.6,00.0,38.3,30.3,20.9,0000.0,0004.80,0002.52,0002.13
2021-09-21 08:25:00,,0837.6,5.01,0.00,28.7,27.6,00.0,38.2,30.3,21.0,0000.0,0004.75,0002.52,0002.16
2021-09-21 08:26:00,,0837.6,5.00,0.00,28.7,27.6,00.0,38.2,30.2,21.1,0000.0,0004.94,0002.58,0002.19
2021-09-21 08:27:00,,0837.6,4.99,0.00,28.6,27.6,00.0,38.1,30.2,21.2,0000.0,0005.01,0002.60,0002.20
2021-09-21 08:28:00,,0837.7,5.01,0.00,28.6,27.5,00.0,38.1,30.2,21.2,0000.0,0004.90,0002.59,0002.22
2021-09-21 08:29:00,,0837.7,5.00,0.00,28.5,27.5,00.0,38.0,30.2,21.1,0000.0,0004.90,0002.58,0002.21
2021-09-21 08:30:00,,0837.6,5.00,0.00,28.5,27.5,00.0,38.0,30.1,21.0,0000.0,0004.93,0002.57,0002.20
2021-09-21 08:31:00,,0837.6,5.00,0.00,28.5,27.4,00.0,38.0,30.1,20.9,0000.0,0004.83,0002.57,0002.20
2021-09-21 08:32:00,,0837.7,5.01,0.00,28.4,27.4,00.0,37.9,30.1,20.8,0000.0,0004.09,0002.56,0002.19
2021-09-21 08:33:00,,0837.6,4.99,0.00,28.4,27.3,00.0,37.9,30.0,20.8,0000.0,0003.65,0002.53,0002.17
2021-09-21 08:34:00,,0837.6,5.00,0.00,28.3,27.2,00.0,37.8,30.0,20.9,0000.0,0003.80,0002.53,0002.15
2021-09-21 08:35:00,,0837.5,5.01,0.00,28.3,27.2,00.0,37.8,29.9,20.9,0000.0,0004.46,0002.56,0002.15
2021-09-21 08:36:00,,0837.6,5.00,0.00,28.3,27.2,00.0,37.8,29.9,21.0,0000.0,0004.86,0002.59,0002.13
2021-09-21 08:37:00,,0837.6,5.00,0.00,28.2,27.2,00.0,37.7,29.9,21.2,0000.0,0004.72,0002.55,0002.10
2021-09-21 08:38:00,,0837.6,5.00,0.00,28.2,27.1,00.0,37.7,29.8,21.3,0000.0,0004.69,0002.53,0002.09
2021-09-21 08:39:00,,0837.7,5.01,0.00,28.2,27.1,00.0,37.6,29.8,21.4,0000.0,0004.73,0002.50,0002.07
2021-09-21 08:40:00,,0837.7,5.00,0.00,28.1,27.0,00.0,37.6,29.7,21.5,0000.0,0004.74,0002.50,0002.07
2021-09-21 08:41:00,,0837.7,5.00,0.00,28.1,27.0,00.0,37.6,29.7,21.7,0000.0,0004.64,0002.50,0002.07
2021-09-21 08:42:00,,0837.8,4.99,0.00,28.0,27.0,00.0,37.5,29.6,21.7,0000.0,0004.55,0002.46,0002.06
2021-09-21 08:43:00,,0837.8,5.00,0.00,28.0,27.0,00.0,37.5,29.6,21.9,0000.0,0004.56,0002.45,0002.05
2021-09-21 08:44:00,,0837.8,4.99,0.00,28.0,27.0,00.0,37.4,29.6,21.9,0000.0,0004.48,0002.44,0002.04
2021-09-21 08:45:00,,0837.8,5.01,0.00,27.9,27.0,00.0,37.4,29.5,21.9,0000.0,0004.37,0002.42,0002.04
2021-09-21 08:46:00,,0837.8,5.00,0.00,27.9,27.0,00.0,37.4,29.5,21.9,0000.0,0003.72,0002.42,0002.04
2021-09-21 08:47:00,,0837.8,4.99,0.00,27.9,27.0,00.0,37.3,29.5,21.9,0000.0,0003.42,0002.41,0002.06
2021-09-21 08:48:00,,0837.8,5.00,0.00,27.9,27.0,00.0,37.3,29.5,21.9,0000.0,0003.53,0002.42,0002.08
2021-09-21 08:49:00,,0837.8,5.00,0.00,27.8,26.9,00.0,37.3,29.5,21.9,0000.0,0003.99,0002.45,0002.10
2021-09-21 08:50:00,,0837.9,5.01,0.00,27.8,26.9,00.0,37.3,29.5,21.8,0000.0,0004.19,0002.46,0002.10
2021-09-21 08:51:00,,0837.8,5.00,0.00,27.8,26.9,00.0,37.2,29.4,21.8,0000.0,0004.11,0002.43,0002.09
2021-09-21 08:52:00,,0837.8,4.99,0.00,27.8,26.9,00.0,37.2,29.4,21.8,0000.0,0004.15,0002.46,0002.11
2021-09-21 08:53:00,,0837.9,5.01,0.00,27.8,26.9,00.0,37.2,29.4,21.7,0000.0,0004.18,0002.47,0002.12
2021-09-21 08:54:00,,0837.8,5.00,0.00,27.7,26.9,00.0,37.1,29.4,21.7,0000.0,0004.08,0002.45,0002.12
2021-09-21 08:55:00,,0837.8,4.99,0.00,27.7,26.8,00.0,37.1,29.3,21.8,0000.0,0003.98,0002.43,0002.14
2021-09-21 08:56:00,,0837.8,5.01,0.00,27.7,26.8,00.0,37.1,29.3,21.8,0000.0,0003.95,0002.45,0002.15
2021-09-21 08:57:00,,0837.8,5.01,0.00,27.7,26.8,00.0,37.0,29.3,21.9,0000.0,0003.95,0002.45,0002.15
2021-09-21 08:58:00,,0837.8,4.99,0.00,27.6,26.8,00.0,37.0,29.3,21.8,0000.0,0003.99,0002.44,0002.14
2021-09-21 08:59:00,,0837.8,4.99,0.00,27.6,26.8,00.0,37.0,29.2,21.8,0000.0,0003.94,0002.44,0002.15
